Regional Weather Roundup
Issued by NWS Sioux Falls, SD

Home | Current Version | Previous Version | Graphics & Text | Print | Product List | Glossary On
Versions: 1 2 3 4 5 6 7 8 9 10 11 12 13 14 15 16 17 18 19 20 21 22 23 24 25 26 27 28 29 30 31 32 33 34 35 36 37 38 39 40 41 42 43 44 45 46 47 48 49 50
000
ASUS43 KFSD 281210
RWRFSD

WEATHER ROUNDUP FOR SE SOUTH DAKOTA/SW MINNESOTA/NW IOWA
NATIONAL WEATHER SERVICE SIOUX FALLS SD
600 AM CST WED JAN 28 2015

NOTE: "FAIR" INDICATES FEW OR NO CLOUDS BELOW 12,000 FEET WITH NO
SIGNIFICANT WEATHER AND OR OBSTRUCTIONS TO VISIBILITY.


SDZ038>040-050-052>070-281300-
SOUTHEAST SOUTH DAKOTA

CITY           SKY/WX    TMP DP  RH WIND       PRES   REMARKS
CHAMBERLAIN    MOCLDY    33  30  90 CALM      29.70S
6HR MIN TEMP:  30; 6HR MAX TEMP:  35;

HURON          PTCLDY    33  30  88 SE10      29.72F WCI  25
6HR MIN TEMP:  33; 6HR MAX TEMP:  35;

MADISON        FAIR      32  32 100 S21       29.78F WCI  20
MITCHELL         N/A     34  30  85 MISG      29.74F
6HR MIN TEMP:  34; 6HR MAX TEMP:  36;

SIOUX FALLS    MOCLDY    34  30  85 S14       29.83S WCI  25
6HR MIN TEMP:  34; 6HR MAX TEMP:  36;

WINNER         FAIR      51  30  44 SW14      29.72S
YANKTON        PTCLDY    34  28  80 SE9       29.83F WCI  26
$$

MNZ071-072-080-081-089-090-097-098-281300-
SOUTHWEST MINNESOTA

CITY           SKY/WX    TMP DP  RH WIND       PRES   REMARKS
FAIRMONT       CLOUDY    30  27  86 S18G26    29.94F WCI  18
JACKSON        CLOUDY    32  30  93 SE16G22   29.92F FOG     WCI  21
LUVERNE        PTCLDY    32  32 100 S13       29.86S WCI  22
MARSHALL       PTCLDY    30  27  86 S15       29.86F WCI  19
6HR MIN TEMP:  30; 6HR MAX TEMP:  34;

MONTEVIDEO     CLOUDY    32  32 100 S16G23    29.87F WCI  21
PIPESTONE      PTCLDY    34  30  86 S16G24    29.81F WCI  23
REDWOOD FALLS  CLOUDY    33  30  88 SE21      29.91F FOG     WCI  21
TRACY          CLOUDY    32  31  95 S16G24    29.86F WCI  22
WINDOM         CLOUDY    30  30 100 SE16G25   29.90S FOG     WCI  19
WORTHINGTON    CLOUDY    30  27  86 S15G24    29.88F WCI  19
$$

IAZ001>003-012>014-020>022-031-032-NEZ013-014-SDZ071-281300-
NORTHWEST IOWA

CITY           SKY/WX    TMP DP  RH WIND       PRES   REMARKS
CHEROKEE       PTCLDY    31  31  99 SE12G17   29.92S FOG     WCI  22
DENISON        CLEAR     32  32 100 SE6G12    29.91F WCI  26
ESTHERVILLE    CLOUDY    30  29  96 S20       29.93F FOG     WCI  17
LE MARS        PTCLDY    32  30  93 SE10      29.89F WCI  24
ORANGE CITY    PTCLDY    32  28  86 SE10      29.88F WCI  24
SHELDON        CLEAR     32  32 100 SE15G23   29.87F WCI  22
SIOUX CITY     PTCLDY    32  29  88 SE6       29.89S WCI  26
6HR MIN TEMP:  31; 6HR MAX TEMP:  34;

SPENCER        CLOUDY    31  29  92 SE17      29.93F FOG     WCI  19
6HR MIN TEMP:  31; 6HR MAX TEMP:  32;

STORM LAKE     CLOUDY    30  30 100 SE23G29   29.91F FOG     WCI  17
$$

ABBREVIATIONS USED IN REMARKS
   TC - TEMPERATURE IN CELSIUS
  WCI - WIND CHILL INDEX
   HX - HEAT INDEX
  VSB - VISIBILITY



USA.gov is the U.S. government's official web portal to all federal, state and local government web resources and services.